Dauntless Aviation
Airports North America United States Colorado
98CO

NCMC HELIPORT

GREELEY, CO, USA

Airport Info
Suggest Updated Information for this Airport

Location

Latitude / Longitude: 40°24'53"N / 104°42'28"W
  40°24.9'N / 104°42.4667'W
  40.4150 / -104.7078
Elevation: 4882 ft. (estimated)
Variation: 12E (1985)
From city: 00 miles N of GREELEY, CO

Operations

Facility use: Private
Sectional chart: DENVER
Control tower: no
Boundary ARTCC: DENVER
FSS: DENVER [1-800-WX-BRIEF]
Segmented circle: no

Communications

Nearby radio navigation aids

VOR radial/distance VOR name Freq Var
GLL 233oT/8.9 GILL VORTAC 114.20 13E
DVV 353oT/31.5 MILE HIGH VORTAC 114.70 11E
BJC 33oT/36.1 JEFFCO VOR/DME 115.40 11E
DEN 357oT/36.2 DENVER VOR/DME 117.90 11E
 
NDB name Hdg/Dist Freq Var ID

Services

Runway Information

Helipad H1

Dimensions: 40 x 40 ft.
Surface: PORTLAND CEMENT CONCRETE,NO SPECIAL SURFACE TREATMENT
 

Additional Remarks

Instrument Procedures

No published instrument procedures available
Topographic chart at:
Satellite photo at:
Airport distance calculator
From:
Weather Reports

METAR

KGXY
4.2nm NE
KGXY 302335Z 15006KT 10SM CLR 24/06 A3015 RMK AO1
KFNL
14.3nm W
KFNL 302335Z AUTO 17008KT 10SM CLR 23/07 A3014 RMK AO1
KLMO
25.8nm SW
KLMO 302334Z AUTO 19004KT 10SM SCT120 24/08 A3018 RMK AO2 T02350077
KEIK
28.6nm S
KEIK 302335Z AUTO 00000KT 10SM CLR 23/05 A3017 RMK AO2 T02260054
KBDU
33.3nm SW
KBDU 302337Z AUTO 00000KT 10SM CLR 20/08 A3018 RMK AO2
KDEN
35.0nm SE
KDEN 302353Z 05005KT 10SM SCT100 BKN140 20/05 A3018 RMK AO2 SLP160 T02000050 10233 20200 55004

TAF

KDEN
35.0nm SE
KDEN 302202Z 3022/0124 02008KT P6SM VCSH SCT100 BKN150 FM010100 34007KT P6SM BKN080 FM010300 24010KT P6SM BKN080 FM011400 VRB05KT P6SM SCT080 SCT140 FM011800 11005KT P6SM VCTS SCT100CB BKN200
KBJC
35.3nm S
KBJC 302103Z 3021/0118 VRB04KT P6SM VCSH SCT080 BKN150 FM010300 28006KT P6SM BKN080 BKN150
Safelog

 

Dauntless Aviation

© 2007-2016 Dauntless Aviation, all rights reserved
Information provided via PilotNav comes from a variety of official and unofficial data sources. As errors are possible, do not use PilotNav for primary flight planning purposes. Verify any information that you receive via PilotNav with current and canonical charts and other official documents. The material in this database is subject to database copyrights held by Dauntless Aviation and may not be copied without the express permission of Dauntless Aviation - licenses for use of part of all of this data are available for purchase; enquire via the Dauntless Aviation helpdesk. A number of mechanisms and markers exist in the database to protect against and identify infringement / copyright. Automated queries against this website are stictly prohibited, and all activity is logged and analyzed.